Location: Ffald-y-Brenin
(52.0833°N, 4.0000°W)
Time: 18:36:06
(UTC+00:00)

FENGYUN 3A - Pass Details

Date: 18 February 2020
Orbit: 824 x 836 km, 98.4° (Epoch: 31 March)

Event Time Altitude Azimuth Distance (km) Brightness Sun altitude
Rises 06:10:55 0° 12° (NNE) 3,398 7.0 -12.2°
Reaches altitude 10° 06:13:18 10° 9° (N) 2,460 6.2 -11.8°
Maximum altitude 06:18:40 61° 291° (WNW) 950 3.7 -11.0°
Drops below altitude 10° 06:24:00 10° 212° (SSW) 2,446 5.9 -10.2°
Sets 06:26:22 0° 209° (SSW) 3,375 6.6 -9.8°
